Tracking 29892 objects as of 21-Nov-2024
HD Live streaming from Space Station
objects crossing your sky now

STARLINK-1640

Track STARLINK-1640 now!
10-day predictions
STARLINK-1640 is classified as:


NORAD ID: 46173
Int'l Code: 2020-057BJ
Perigee: 553.6 km
Apogee: 554.9 km
Inclination: 53.1 °
Period: 95.6 minutes
Semi major axis: 6925 km
RCS: Unknown
Launch date: August 18, 2020
Source: United States (US)
Launch site: AIR FORCE EASTERN TEST RANGE (AFETR)
Your satellite tracking list
Your tracking list is empty




NASA's NSSDC Master Catalog

Two Line Element Set (TLE):
1 46173U 20057BJ  24325.91707086  .00017735  00000-0  12057-2 0  9999
2 46173  53.0557 283.4671 0000924  77.1239 282.9853 15.06424028234652
Source of the keplerian elements: AFSPC